TimeEST,TemperatureF,Dew PointF,Humidity,Sea Level PressureIn,VisibilityMPH,Wind Direction,Wind SpeedMPH,Gust SpeedMPH,PrecipitationIn,Events,Conditions,WindDirDegrees,DateUTC
12:15 AM,35.6,23.0,60,30.03,10.0,SSE,6.9,-,N/A,,Overcast,150,2012-12-07 05:15:00
12:35 AM,35.6,23.0,60,30.03,10.0,SSE,5.8,-,N/A,,Overcast,160,2012-12-07 05:35:00
12:55 AM,35.6,24.8,65,30.01,10.0,SE,5.8,-,N/A,,Overcast,140,2012-12-07 05:55:00
1:15 AM,35.6,24.8,65,30.01,10.0,SSE,5.8,-,N/A,,Overcast,160,2012-12-07 06:15:00
1:35 AM,37.4,24.8,60,30.01,10.0,South,5.8,-,N/A,,Partly Cloudy,170,2012-12-07 06:35:00
1:55 AM,35.6,24.8,65,30.00,10.0,South,6.9,-,N/A,,Mostly Cloudy,170,2012-12-07 06:55:00
2:15 AM,37.4,26.6,65,30.00,10.0,SSE,4.6,-,N/A,,Overcast,160,2012-12-07 07:15:00
2:35 AM,37.4,26.6,65,30.00,10.0,SSE,8.1,-,N/A,,Overcast,160,2012-12-07 07:35:00
2:55 AM,37.4,26.6,65,30.00,10.0,South,6.9,-,N/A,,Overcast,170,2012-12-07 07:55:00
3:15 AM,37.4,26.6,65,30.00,10.0,South,8.1,-,N/A,,Overcast,170,2012-12-07 08:15:00
3:35 AM,37.4,26.6,65,29.99,10.0,South,5.8,-,N/A,,Overcast,190,2012-12-07 08:35:00
3:55 AM,37.4,26.6,65,30.01,10.0,Calm,Calm,-,N/A,,Overcast,0,2012-12-07 08:55:00
4:15 AM,37.4,28.4,70,30.01,10.0,SSW,6.9,-,N/A,,Overcast,210,2012-12-07 09:15:00
4:35 AM,37.4,28.4,70,30.00,9.0,South,5.8,-,N/A,,Mostly Cloudy,180,2012-12-07 09:35:00
4:55 AM,35.6,30.2,81,29.99,5.0,SE,6.9,-,0.03,,Mostly Cloudy,140,2012-12-07 09:55:00
5:15 AM,35.6,32.0,87,29.97,10.0,ESE,9.2,-,0.01,,Mostly Cloudy,120,2012-12-07 10:15:00
5:35 AM,35.6,33.8,93,29.98,9.0,SE,3.5,-,0.01,,Mostly Cloudy,140,2012-12-07 10:35:00
5:55 AM,35.6,33.8,93,29.99,9.0,South,4.6,-,0.02,,Overcast,190,2012-12-07 10:55:00
6:15 AM,35.6,33.8,93,30.00,5.0,SSW,3.5,-,0.01,,Overcast,210,2012-12-07 11:15:00
6:35 AM,35.6,33.8,93,29.99,6.0,SE,4.6,-,0.03,,Overcast,130,2012-12-07 11:35:00
6:55 AM,35.6,33.8,93,30.01,5.0,SSW,3.5,-,0.05,,Overcast,200,2012-12-07 11:55:00
7:15 AM,37.4,35.6,93,29.99,5.0,ESE,4.6,-,0.01,,Overcast,110,2012-12-07 12:15:00
7:35 AM,35.6,33.8,93,29.97,1.8,ESE,9.2,-,0.02,,Overcast,110,2012-12-07 12:35:00
7:55 AM,37.4,35.6,93,29.97,2.5,SE,10.4,-,0.04,,Overcast,130,2012-12-07 12:55:00
8:15 AM,37.4,35.6,93,29.97,2.0,SW,8.1,-,N/A,,Overcast,230,2012-12-07 13:15:00
8:35 AM,37.4,35.6,93,29.99,0.5,WSW,3.5,-,N/A,,Overcast,250,2012-12-07 13:35:00
8:55 AM,37.4,35.6,93,29.98,0.5,Calm,Calm,-,N/A,,Overcast,0,2012-12-07 13:55:00
9:15 AM,37.4,35.6,93,29.98,0.8,SE,4.6,-,N/A,,Overcast,140,2012-12-07 14:15:00
9:35 AM,37.4,37.4,100,29.99,1.2,South,4.6,-,N/A,,Overcast,170,2012-12-07 14:35:00
9:55 AM,37.4,37.4,100,29.99,0.8,SSE,3.5,-,N/A,,Overcast,160,2012-12-07 14:55:00
10:15 AM,39.2,37.4,93,29.99,0.5,Calm,Calm,-,N/A,,Overcast,0,2012-12-07 15:15:00
10:35 AM,39.2,37.4,93,29.99,0.5,South,6.9,-,N/A,,Overcast,190,2012-12-07 15:35:00
10:55 AM,39.2,37.4,93,29.99,0.8,South,6.9,-,0.01,,Overcast,190,2012-12-07 15:55:00
11:15 AM,39.2,37.4,93,29.97,0.8,South,4.6,-,0.01,,Overcast,180,2012-12-07 16:15:00
11:35 AM,39.2,39.2,100,29.97,1.0,SSW,6.9,-,0.01,,Overcast,200,2012-12-07 16:35:00
11:55 AM,39.2,39.2,100,29.97,0.5,SSW,4.6,-,0.02,,Overcast,210,2012-12-07 16:55:00
12:15 PM,41.0,39.2,93,29.96,0.2,SW,4.6,-,N/A,,Overcast,230,2012-12-07 17:15:00
12:35 PM,42.8,39.2,87,29.96,0.2,SW,4.6,-,N/A,,Overcast,220,2012-12-07 17:35:00
12:55 PM,42.8,41.0,93,29.95,0.2,SW,8.1,-,N/A,,Overcast,220,2012-12-07 17:55:00
1:15 PM,42.8,42.8,100,29.95,1.2,SW,5.8,-,N/A,,Overcast,220,2012-12-07 18:15:00
1:35 PM,42.8,42.8,100,29.94,0.8,SW,5.8,-,N/A,,Overcast,230,2012-12-07 18:35:00
2:15 PM,44.6,42.8,93,29.94,3.0,SW,3.5,-,0.01,,Overcast,230,2012-12-07 19:15:00
2:35 PM,44.6,42.8,93,29.94,3.0,SW,3.5,-,0.01,,Overcast,230,2012-12-07 19:35:00
2:55 PM,44.6,42.8,93,29.94,5.0,SW,3.5,-,0.01,,Overcast,220,2012-12-07 19:55:00
3:15 PM,44.6,42.8,93,29.94,5.0,SW,3.5,-,N/A,,Overcast,220,2012-12-07 20:15:00
3:35 PM,44.6,42.8,93,29.94,5.0,SW,3.5,-,N/A,,Overcast,220,2012-12-07 20:35:00
3:55 PM,44.6,42.8,93,29.95,7.0,SW,4.6,-,0.01,,Overcast,220,2012-12-07 20:55:00
4:15 PM,44.6,42.8,93,29.95,5.0,SW,3.5,-,N/A,,Overcast,230,2012-12-07 21:15:00
4:35 PM,44.6,42.8,93,29.95,5.0,SW,4.6,-,N/A,,Overcast,220,2012-12-07 21:35:00
4:55 PM,44.6,42.8,93,29.95,3.0,SW,3.5,-,N/A,,Overcast,220,2012-12-07 21:55:00
5:15 PM,44.6,42.8,93,29.94,5.0,SSW,3.5,-,N/A,,Overcast,210,2012-12-07 22:15:00
5:35 PM,44.6,42.8,93,29.94,6.0,South,3.5,-,N/A,,Overcast,180,2012-12-07 22:35:00
5:55 PM,44.6,42.8,93,29.94,6.0,South,3.5,-,N/A,,Overcast,180,2012-12-07 22:55:00
6:15 PM,44.6,42.8,93,29.95,5.0,South,3.5,-,N/A,,Overcast,180,2012-12-07 23:15:00
6:35 PM,44.6,42.8,93,29.94,5.0,South,3.5,-,N/A,,Overcast,180,2012-12-07 23:35:00
6:55 PM,44.6,42.8,93,29.94,4.0,Calm,Calm,-,N/A,,Overcast,0,2012-12-07 23:55:00
7:15 PM,44.6,42.8,93,29.94,3.0,Calm,Calm,-,N/A,,Overcast,0,2012-12-08 00:15:00
7:35 PM,44.6,42.8,93,29.94,1.8,South,4.6,-,N/A,,Overcast,180,2012-12-08 00:35:00
8:15 PM,44.6,42.8,93,29.94,1.5,SSW,3.5,-,N/A,,Overcast,200,2012-12-08 01:15:00
8:35 PM,44.6,42.8,93,29.94,0.8,Calm,Calm,-,N/A,,Overcast,0,2012-12-08 01:35:00
8:55 PM,44.6,44.6,100,29.94,1.2,Calm,Calm,-,0.01,,Overcast,0,2012-12-08 01:55:00
9:35 PM,44.6,42.8,93,29.93,0.5,Calm,Calm,-,N/A,,Overcast,0,2012-12-08 02:35:00
9:55 PM,42.8,42.8,100,29.92,0.5,Calm,Calm,-,N/A,,Overcast,0,2012-12-08 02:55:00
10:15 PM,42.8,42.8,100,29.91,0.5,Calm,Calm,-,N/A,,Overcast,0,2012-12-08 03:15:00
10:35 PM,44.6,42.8,93,29.90,0.5,Calm,Calm,-,0.02,,Overcast,0,2012-12-08 03:35:00
10:55 PM,44.6,42.8,93,29.90,0.8,Calm,Calm,-,0.04,,Overcast,0,2012-12-08 03:55:00
11:15 PM,44.6,42.8,93,29.89,0.5,Calm,Calm,-,0.01,,Overcast,0,2012-12-08 04:15:00
11:35 PM,42.8,42.8,100,29.89,0.5,Calm,Calm,-,0.02,,Overcast,0,2012-12-08 04:35:00
11:55 PM,44.6,42.8,93,29.89,0.5,SE,4.6,-,0.03,,Overcast,130,2012-12-08 04:55:00